EW8865 Weather Reports


time (UTC)temp
C
wind
direction
speed
KPH
gust
KPH
rain 1hr
cm
rain 24hr
cm
rain mn
cm
humidity
%
barometer
mb
20260906220004 18 202 1.6 4.8 0.00 0.15 0.15 87 1015.4
20260906215504 18 202 3.2 4.8 0.00 0.15 0.15 87 1015.4
20260906215004 18 203 3.2 4.8 0.00 0.15 0.15 87 1015.5
20260906214503 18 205 3.2 8.0 0.00 0.15 0.15 87 1015.6
20260906214004 18 211 3.2 4.8 0.00 0.15 0.15 87 1015.5
20260906213504 18 250 1.6 4.8 0.00 0.15 0.15 87 1015.5
20260906213004 18 250 1.6 8.0 0.00 0.15 0.15 86 1015.6
20260906212503 18 242 4.8 4.8 0.00 0.15 0.15 86 1015.5
20260906212003 18 243 3.2 8.0 0.00 0.15 0.15 86 1015.5
20260906211003 18 224 8.0 9.7 0.00 0.15 0.15 85 1015.5
20260906210004 18 220 4.8 9.7 0.00 0.15 0.15 84 1015.5
20260906205003 18 213 4.8 8.0 0.00 0.15 0.15 83 1015.5
20260906204504 18 219 4.8 8.0 0.00 0.15 0.15 83 1015.6
20260906204004 18 233 4.8 4.8 0.00 0.15 0.15 82 1015.6
20260906203504 18 239 6.4 12.9 0.00 0.15 0.15 82 1015.6
20260906203004 18 223 8.0 12.9 0.00 0.15 0.15 82 1015.6
20260906202004 18 233 3.2 4.8 0.00 0.15 0.15 80 1015.6
20260906201504 18 234 4.8 11.3 0.00 0.15 0.15 80 1015.7
20260906201004 18 221 4.8 11.3 0.00 0.15 0.15 80 1015.7
20260906200503 19 217 8.0 12.9 0.00 0.15 0.15 79 1015.7
20260906195504 19 219 6.4 9.7 0.00 0.15 0.15 77 1015.6
20260906194503 19 233 8.0 12.9 0.00 0.15 0.15 75 1015.6
20260906194004 20 250 8.0 12.9 0.00 0.15 0.15 75 1015.5
20260906193504 20 242 6.4 12.9 0.00 0.15 0.15 74 1015.4
20260906193004 20 226 6.4 12.9 0.00 0.15 0.15 74 1015.4
20260906192503 20 239 8.0 11.3 0.00 0.15 0.15 73 1015.5
20260906191503 20 240 11.3 16.1 0.00 0.15 0.15 71 1015.4
20260906191004 21 204 8.0 14.5 0.00 0.15 0.15 70 1015.3
20260906190504 21 186 4.8 14.5 0.00 0.15 0.15 69 1015.2
20260906190004 21 169 8.0 20.9 0.00 0.15 0.15 69 1015.2
20260906185504 21 219 6.4 11.3 0.00 0.15 0.15 68 1015.1
20260906185003 21 175 6.4 12.9 0.00 0.15 0.15 67 1014.9
20260906184503 21 182 4.8 12.9 0.00 0.15 0.15 67 1014.8
20260906184003 21 180 11.3 22.5 0.00 0.15 0.15 66 1014.7
20260906183503 21 136 8.0 16.1 0.00 0.15 0.15 65 1014.7
20260906183004 22 146 4.8 19.3 0.00 0.15 0.15 64 1014.6
20260906182504 22 132 8.0 12.9 0.00 0.15 0.15 63 1014.6
20260906181503 22 144 6.4 16.1 0.00 0.15 0.15 62 1014.6
20260906180503 22 172 8.0 12.9 0.00 0.15 0.15 60 1014.7
20260906180004 22 144 8.0 14.5 0.00 0.15 0.15 60 1014.6
20260906175503 22 177 8.0 14.5 0.00 0.15 0.15 59 1014.7
20260906175003 23 132 6.4 19.3 0.00 0.15 0.15 59 1014.7
20260906174503 23 159 4.8 19.3 0.00 0.15 0.15 58 1014.7
20260906174003 23 139 4.8 19.3 0.00 0.15 0.15 57 1014.8
20260906173004 23 158 4.8 12.9 0.00 0.15 0.15 55 1014.8
20260906172504 23 141 8.0 14.5 0.00 0.15 0.15 55 1014.9
20260906172004 24 139 11.3 24.1 0.00 0.15 0.15 53 1014.9
20260906171503 24 121 8.0 14.5 0.00 0.15 0.15 52 1014.9
20260906170503 25 185 9.7 19.3 0.00 0.15 0.15 50 1014.9
20260906170004 25 178 4.8 14.5 0.00 0.15 0.15 50 1014.8
20260906165504 25 138 4.8 14.5 0.00 0.15 0.15 50 1014.9
20260906165004 25 147 8.0 19.3 0.00 0.15 0.15 49 1014.9
20260906164503 25 183 4.8 11.3 0.00 0.15 0.15 48 1014.9
20260906164004 25 157 9.7 24.1 0.00 0.15 0.15 47 1014.9
20260906163503 26 163 14.5 32.2 0.00 0.15 0.15 46 1015.0
20260906163004 26 164 4.8 14.5 0.00 0.15 0.15 48 1015.0
20260906162003 26 148 9.7 20.9 0.00 0.15 0.15 47 1015.0
20260906161004 25 171 11.3 22.5 0.00 0.15 0.15 46 1015.2
20260906155503 25 128 8.0 19.3 0.00 0.15 0.15 46 1015.3
20260906154503 26 129 12.9 22.5 0.00 0.15 0.15 44 1015.5
20260906154003 26 160 9.7 20.9 0.00 0.15 0.15 44 1015.6
20260906152504 26 143 8.0 19.3 0.00 0.15 0.15 44 1015.7
20260906152004 26 167 6.4 20.9 0.00 0.15 0.15 45 1015.8
20260906151504 26 143 6.4 14.5 0.00 0.15 0.15 46 1015.8
20260906151004 26 157 9.7 24.1 0.00 0.15 0.15 46 1015.8
20260906150503 26 187 9.7 19.3 0.00 0.15 0.15 46 1015.9
20260906150003 26 166 9.7 24.1 0.00 0.15 0.15 46 1016.0
20260906145504 26 179 9.7 25.7 0.00 0.15 0.15 44 1016.0
20260906145004 26 194 14.5 27.4 0.00 0.15 0.15 44 1016.1
20260906144504 26 190 11.3 19.3 0.00 0.15 0.15 44 1016.2
20260906144004 26 166 9.7 24.1 0.00 0.15 0.15 44 1016.3
20260906143504 26 153 12.9 29.0 0.00 0.15 0.15 44 1016.4
20260906142504 26 142 11.3 19.3 0.00 0.15 0.15 46 1016.6
20260906141504 26 137 8.0 19.3 0.00 0.15 0.15 46 1016.8
20260906141003 26 150 9.7 20.9 0.00 0.15 0.15 48 1016.9
20260906140004 26 185 11.3 25.7 0.00 0.15 0.15 48 1017.1
20260906135504 26 203 11.3 20.9 0.00 0.15 0.15 49 1017.0
20260906135003 26 150 11.3 20.9 0.00 0.15 0.15 48 1017.0
20260906134504 26 145 11.3 25.7 0.00 0.15 0.15 48 1017.1
20260906133503 25 177 6.4 19.3 0.00 0.15 0.15 51 1017.2
20260906133004 25 175 14.5 29.0 0.00 0.15 0.15 50 1017.3
20260906132004 24 134 9.7 16.1 0.00 0.15 0.15 56 1017.4
20260906131503 23 140 9.7 19.3 0.00 0.15 0.15 57 1017.4
20260906131004 23 126 9.7 19.3 0.00 0.15 0.15 58 1017.5
20260906130504 23 169 9.7 14.5 0.00 0.15 0.15 58 1017.5
20260906130003 23 147 11.3 27.4 0.00 0.15 0.15 58 1017.7
20260906125504 23 135 11.3 20.9 0.00 0.15 0.15 60 1017.7
20260906125004 23 139 11.3 19.3 0.00 0.15 0.15 63 1017.7
20260906124504 23 154 9.7 16.1 0.00 0.15 0.15 64 1017.8
20260906124004 22 115 11.3 19.3 0.00 0.15 0.15 63 1017.9
20260906123504 22 148 9.7 19.3 0.00 0.15 0.15 64 1018.0
20260906123004 22 160 11.3 20.9 0.00 0.15 0.15 64 1018.1
20260906122503 23 170 9.7 22.5 0.00 0.15 0.15 63 1018.3
20260906121503 23 180 12.9 24.1 0.00 0.15 0.15 63 1018.4
20260906121003 23 134 8.0 19.3 0.00 0.15 0.15 65 1018.4
20260906120504 22 163 11.3 20.9 0.00 0.15 0.15 64 1018.4
20260906115504 22 120 8.0 14.5 0.00 0.15 0.15 70 1018.4
20260906115004 21 169 9.7 19.3 0.00 0.15 0.15 70 1018.5
20260906114504 21 149 8.0 19.3 0.00 0.15 0.15 69 1018.5
20260906114003 21 185 6.4 12.9 0.00 0.15 0.15 71 1018.5
20260906113503 21 143 4.8 19.3 0.00 0.15 0.15 71 1018.6
20260906113004 21 148 4.8 11.3 0.00 0.15 0.15 71 1018.7
20260906112503 21 119 11.3 19.3 0.00 0.15 0.15 70 1018.6
20260906112004 21 139 6.4 14.5 0.00 0.15 0.15 70 1018.6
20260906111505 21 128 6.4 11.3 0.00 0.15 0.15 69 1018.7
20260906111003 22 175 4.8 19.3 0.00 0.15 0.15 68 1018.9
20260906110503 22 140 4.8 19.3 0.00 0.15 0.15 68 1019.0
20260906110003 22 127 9.7 19.3 0.00 0.15 0.15 71 1019.1
20260906105504 21 120 9.7 16.1 0.00 0.15 0.15 72 1019.3
20260906105004 21 124 9.7 19.3 0.00 0.15 0.15 71 1019.3
20260906104504 21 143 6.4 16.1 0.00 0.15 0.15 71 1019.2
20260906104004 21 128 8.0 24.1 0.00 0.15 0.15 70 1019.2
20260906103503 21 139 6.4 12.9 0.00 0.15 0.15 70 1019.3
20260906103004 21 206 6.4 19.3 0.00 0.15 0.15 69 1019.3
20260906102503 21 198 8.0 16.1 0.00 0.15 0.15 68 1019.5
20260906102003 21 128 4.8 16.1 0.00 0.15 0.15 69 1019.5
20260906101507 21 131 4.8 14.5 0.00 0.15 0.15 70 1019.5
20260906095503 21 180 4.8 12.9 0.00 0.15 0.15 72 1020.0
20260906095003 21 169 4.8 9.7 0.00 0.15 0.15 73 1019.9
20260906094504 20 178 4.8 9.7 0.00 0.15 0.15 74 1020.0
20260906093004 20 128 4.8 11.3 0.00 0.15 0.15 74 1019.9
20260906092503 20 134 8.0 11.3 0.00 0.15 0.15 75 1020.0
20260906092004 20 164 9.7 19.3 0.00 0.15 0.15 73 1020.0
20260906091503 20 170 9.7 14.5 0.00 0.15 0.15 74 1020.1
20260906091005 20 173 9.7 22.5 0.00 0.15 0.15 74 1020.1
20260906090504 19 148 11.3 19.3 0.00 0.15 0.15 75 1020.0
20260906090003 19 141 9.7 19.3 0.00 0.15 0.15 77 1020.1
20260906085504 18 198 3.2 8.0 0.00 0.15 0.15 78 1020.2
20260906085004 18 153 3.2 9.7 0.00 0.15 0.15 77 1020.3
20260906084505 18 115 3.2 16.1 0.00 0.15 0.15 77 1020.4
20260906084004 18 173 9.7 16.1 0.00 0.15 0.15 76 1020.4
20260906083503 18 128 6.4 16.1 0.00 0.15 0.15 79 1020.4
20260906083003 18 156 9.7 24.1 0.00 0.15 0.15 78 1020.4
20260906082505 17 140 8.0 20.9 0.00 0.15 0.15 80 1020.3
20260906082004 17 143 11.3 19.3 0.00 0.15 0.15 80 1020.4
20260906081504 17 172 4.8 19.3 0.00 0.15 0.15 81 1020.3
20260906080504 17 150 8.0 14.5 0.00 0.15 0.15 81 1020.3
20260906075503 16 181 6.4 11.3 0.00 0.15 0.15 84 1020.3
20260906075003 16 114 6.4 19.3 0.00 0.15 0.15 85 1020.3
20260906074503 16 94 9.7 19.3 0.00 0.15 0.15 88 1020.4
20260906074003 16 121 4.8 8.0 0.00 0.15 0.15 88 1020.5
20260906073503 16 129 4.8 19.3 0.00 0.15 0.15 89 1020.6
20260906072503 15 119 3.2 14.5 0.00 0.15 0.15 92 1020.5
20260906072003 15 124 3.2 4.8 0.00 0.15 0.15 92 1020.4
20260906071003 15 68 1.6 4.8 0.00 0.15 0.15 93 1020.5
20260906070504 14 68 1.6 4.8 0.00 0.15 0.15 93 1020.4
20260906065503 14 64 3.2 4.8 0.00 0.15 0.15 93 1020.4
20260906065003 14 63 3.2 4.8 0.00 0.15 0.15 93 1020.3
20260906064003 13 71 3.2 4.8 0.00 0.15 0.15 93 1020.2
20260906063503 13 71 1.6 4.8 0.00 0.15 0.15 93 1020.2
20260906063003 13 72 1.6 4.8 0.00 0.15 0.15 93 1020.2
20260906062503 13 72 1.6 3.2 0.00 0.15 0.15 93 1020.3
20260906062003 13 72 1.6 3.2 0.00 0.15 0.15 92 1020.4
20260906061504 13 72 0.0 3.2 0.00 0.15 0.15 92 1020.5
20260906061003 13 72 1.6 4.8 0.00 0.15 0.15 92 1020.5
20260906060503 13 55 1.6 3.2 0.00 0.15 0.15 92 1020.5
20260906060004 13 54 0.0 4.8 0.00 0.15 0.15 92 1020.6
20260906055504 13 117 3.2 4.8 0.00 0.15 0.15 92 1020.5
20260906055004 13 121 3.2 4.8 0.00 0.15 0.15 92 1020.5
20260906054503 13 124 0.0 3.2 0.00 0.15 0.15 92 1020.5
20260906054003 13 124 0.0 0.0 0.00 0.15 0.15 92 1020.6
20260906053503 13 124 0.0 0.0 0.00 0.15 0.15 91 1020.6
20260906053003 13 125 0.0 0.0 0.00 0.15 0.15 91 1020.7
20260906052504 13 125 0.0 0.0 0.00 0.15 0.15 91 1020.8
20260906052004 13 125 0.0 0.0 0.00 0.15 0.15 91 1020.8
20260906051504 13 125 0.0 0.0 0.00 0.15 0.15 91 1020.9
20260906051004 13 125 0.0 0.0 0.00 0.15 0.15 91 1020.8
20260906050503 13 125 0.0 0.0 0.00 0.15 0.15 91 1020.8
20260906050004 13 125 0.0 0.0 0.03 0.15 0.15 91 1020.9
20260906045504 13 125 0.0 0.0 0.05 0.15 0.15 91 1021.0
20260906045004 13 124 0.0 3.2 0.05 0.15 0.15 91 1021.0
20260906043004 13 125 0.0 3.2 0.08 0.15 0.15 91 1021.3
20260906042504 13 124 1.6 4.8 0.10 0.15 0.15 91 1021.3
20260906042004 13 125 1.6 3.2 0.10 0.15 0.15 91 1021.3
20260906041004 13 125 3.2 4.8 0.13 0.15 0.15 90 1021.4
20260906040503 13 149 0.0 0.0 0.15 0.15 0.15 90 1021.6
20260906040003 13 149 0.0 0.0 0.13 0.15 0.15 90 1021.6
20260906035503 13 260 0.0 0.0 0.10 0.13 0.13 90 1021.8
20260906034503 13 260 0.0 0.0 0.10 0.13 0.13 90 1022.0
20260906034004 13 260 0.0 0.0 0.10 0.13 0.13 89 1022.2
20260906033504 13 260 0.0 0.0 0.08 0.10 0.10 89 1022.2
20260906033004 13 260 0.0 0.0 0.05 0.08 0.08 89 1022.3
20260906032504 13 260 0.0 0.0 0.05 0.05 0.05 89 1022.4
20260906032004 13 260 0.0 0.0 0.05 0.05 0.05 89 1022.4
20260906031503 13 260 0.0 0.0 0.05 0.05 0.05 89 1022.6
20260906031004 13 260 0.0 0.0 0.03 0.05 0.05 89 1022.7
20260906030503 13 260 0.0 0.0 0.00 0.03 0.03 89 1022.7
20260906030004 13 260 0.0 0.0 0.00 0.03 0.03 89 1022.7
20260906025003 13 260 0.0 0.0 0.00 0.03 0.03 88 1022.6
20260906024503 13 260 0.0 0.0 0.00 0.03 0.03 88 1022.7
20260906024005 13 260 0.0 0.0 0.00 0.03 0.03 88 1022.7
20260906023503 13 260 0.0 0.0 0.00 0.03 0.03 88 1022.8
20260906023004 13 260 0.0 0.0 0.00 0.03 0.03 88 1022.8
20260906022503 13 260 0.0 0.0 0.00 0.03 0.03 88 1022.9
20260906022004 13 260 0.0 0.0 0.00 0.03 0.03 88 1023.0
20260906021503 13 260 0.0 0.0 0.03 0.03 0.03 88 1023.0
20260906021005 13 260 0.0 0.0 0.03 0.03 0.03 88 1023.1
20260906020504 13 260 0.0 0.0 0.03 0.03 0.03 87 1023.1
20260906020003 13 260 0.0 0.0 0.03 0.03 0.03 87 1023.1
20260906015504 13 260 0.0 0.0 0.03 0.03 0.03 87 1023.1
20260906014504 13 260 0.0 0.0 0.03 0.03 0.03 87 1023.2
20260906014004 13 260 0.0 0.0 0.03 0.03 0.03 87 1023.3
20260906013503 13 260 0.0 0.0 0.03 0.03 0.03 87 1023.4
20260906013005 13 260 0.0 0.0 0.03 0.03 0.03 87 1023.4
20260906012504 13 260 0.0 0.0 0.03 0.03 0.03 87 1023.4
20260906012004 13 260 0.0 0.0 0.03 0.03 0.03 86 1023.5
20260906011503 13 260 0.0 0.0 0.00 0.00 0.00 86 1023.6
20260906011003 13 261 0.0 0.0 0.00 0.00 0.00 86 1023.6
20260906010503 13 261 0.0 0.0 0.00 0.00 0.00 86 1023.6
20260906005504 13 261 0.0 0.0 0.00 0.00 0.00 86 1023.8
20260906005004 13 260 0.0 0.0 0.00 0.00 0.00 86 1023.8
20260906004504 13 260 0.0 0.0 0.00 0.00 0.00 86 1023.8
20260906004004 13 260 0.0 0.0 0.00 0.00 0.00 85 1023.9
20260906003504 13 260 0.0 0.0 0.00 0.00 0.00 85 1023.9
20260906003003 13 260 0.0 0.0 0.00 0.00 0.00 85 1024.0
20260906002504 13 260 0.0 0.0 0.00 0.00 0.00 85 1024.1
20260906001504 13 260 0.0 0.0 0.00 0.00 0.00 85 1024.1
20260906000505 13 260 0.0 0.0 0.00 0.00 0.00 84 1024.2
20260905235003 13 260 0.0 0.0 0.00 0.00 0.00 84 1024.3
20260905234504 13 261 0.0 0.0 0.00 0.00 0.00 84 1024.3
20260905234004 13 260 0.0 0.0 0.00 0.00 0.00 84 1024.3
20260905233503 13 261 0.0 0.0 0.00 0.00 0.00 84 1024.3
20260905233004 13 261 0.0 0.0 0.00 0.00 0.00 84 1024.3
20260905232504 13 245 0.0 0.0 0.00 0.00 0.00 84 1024.4
20260905231504 13 245 0.0 0.0 0.00 0.00 0.00 83 1024.4
20260905231004 13 245 0.0 0.0 0.00 0.00 0.00 83 1024.4
20260905230505 13 245 0.0 0.0 0.00 0.00 0.00 83 1024.4
20260905230003 13 245 0.0 0.0 0.00 0.00 0.00 83 1024.4
20260905225503 13 245 0.0 0.0 0.00 0.00 0.00 83 1024.5
20260905225003 13 245 0.0 0.0 0.00 0.00 0.00 83 1024.5
20260905224504 13 245 0.0 0.0 0.00 0.00 0.00 83 1024.5
20260905224004 13 245 0.0 0.0 0.00 0.00 0.00 83 1024.5
20260905223004 13 245 0.0 0.0 0.00 0.00 0.00 82 1024.4
20260905222004 13 245 0.0 0.0 0.00 0.00 0.00 82 1024.4
20260905221504 13 245 0.0 0.0 0.00 0.00 0.00 82 1024.3
20260905221004 13 244 0.0 0.0 0.00 0.00 0.00 82 1024.4